カタログに戻る

STARLINK-36493

運用中通信VLEO
NORAD 67456·PAYLOAD·🇺🇸 United States

打ち上げ Jan 14, 2026 から Cape Canaveral Space Force Station

Loading…

次のパス (今後24時間)

TLE

最新Source: CelesTrak SupGP

元期: Sep 15, 2026, 03:27 UTC

1 67456C 26008M   26258.14423611 -.00044639  00000+0 -16171-2 0  2582
2 67456  42.9994 215.1420 0001100 272.9985 262.6474 15.27596442    13

AllMySatでSTARLINK-36493をリアルタイム追跡

Download on the App Store